Hourly Data Report for July 11, 2021

CLYDE RIVER A
NUNAVUT
Current Station Operator: NAVCAN

70°29'09.000" N
68°31'01.000" W
26.50 m
2400804
71090
YCY

Download Data

Hourly Data (July 2021)
Hourly Data Report for July 11, 2021
TIME
LST
Temp Definition
°C
Dew Point Definition
°C
Rel Hum Definition
%
Precip. Amount Definition
mm

Wind Dir Definition
10's deg

Wind Spd Definition
km/h
Visibility Definition
km
Stn Press Definition
kPa
Hmdx Definition


Wind Chill Definition


Weather Definition


00:00 1.5 0.8 95 0.0 10 9 16.1 100.68     LegendNANA
01:00 0.8 0.4 97 0.0 7 5 16.1 100.67     LegendNANA
02:00 1.3 0.7 96 0.0 4 4 16.1 100.67     LegendNANA
03:00 2.6 1.5 92 0.0 LegendMM 4 16.1 100.66     LegendNANA
04:00 3.0 1.7 91 0.0 5 4 16.1 100.66     LegendNANA
05:00 4.7 2.7 87 0.0 5 4 16.1 100.65     LegendNANA
06:00 5.8 3.2 84 0.0 8 5 16.1 100.65     LegendNANA
07:00 6.1 3.1 81 0.0 8 5 16.1 100.64     LegendNANA
08:00 7.4 3.9 78 0.0 8 8 16.1 100.64     LegendNANA
09:00 8.7 4.4 74 0.0 8 5 16.1 100.62     LegendNANA
10:00 10.1 4.5 68 0.0   0 16.1 100.61     LegendNANA
11:00 10.7 5.4 70 0.0 25 5 16.1 100.56     LegendNANA
12:00 13.0 5.6 61 0.0 10 15 16.1 100.52     LegendNANA
13:00 11.9 4.4 60 0.0 12 11 16.1 100.51     LegendNANA
14:00 10.6 4.4 65 0.0 11 17 16.1 100.48     LegendNANA
15:00 9.0 3.9 70 0.0 11 15 16.1 100.48     LegendNANA
16:00 10.2 4.2 66 0.0 11 18 16.1 100.43     LegendNANA
17:00 13.0 5.2 59 0.0 15 13 16.1 100.41     LegendNANA
18:00 11.1 5.2 67 0.0 15 13 16.1 100.40     LegendNANA
19:00 10.3 4.7 68 0.0 14 8 16.1 100.37     LegendNANA
20:00 11.9 3.7 57 0.0 24 8 16.1 100.35     LegendNANA
21:00 11.4 3.4 58 0.0 25 9 16.1 100.34     LegendNANA
22:00 9.8 3.4 64 0.0 24 13 16.1 100.31     LegendNANA
23:00 11.3 3.6 59 0.0 22 11 16.1 100.29     LegendNANA

Notes on Data Quality.

Legend

  • E = Estimated
  • M = Missing
  • NA = Not Available*
  • [empty] = Indicates an unobserved value
Date modified: